Content
SEND FEEDBACK

Daily
Averages
Monthly
Summary
Romania

TIMISOARA, ROMANIA


Home > Europe > Romania
Elevation: 335 feet     Latitude: 45 45N     Longitude: 021 14E

WEATHER
 
SELECT A DAY
Number of Records: 276,438;   Date Range: 7/1/96 - 7/29/14
 
SHARE

PRINT THIS DATA

[ ← Previous Day ]
WEATHER ALMANAC - JULY 2, 2014
[ Next Day → ]
[ °C ]   °F
Weather ElementAverageHighLow
Temperature68.2 °F82.4 °F (5:00 pm)51.8 °F (4:30 am)
Dewpoint53.9 °F60.8 °F (8:30 am)46.4 °F (5:00 pm)
Humidity66.1 %100 % (12:00 am)23 % (3:00 pm)
Barometer30.14 in30.18 in (7:30 am)30.07 in (9:00 pm)
Wind Speed4.3 mph9.2 mph (8:30 am)
Weather ElementAverage
Visibility6 mi
Wind DirectionE (85.7 °)

Weather ElementTotal
Precipitation---
Cooling Degree Days2.1 (Base 65)
Growing Degree Days17.1 (Base 50)
Averaged from 54 records on July 2, 2014
WEATHER CONDITIONS BREAKOUT
WIND DIRECTION BREAKOUT
WEATHER BY HOUR - JULY 2, 2014
[ °C ]   °F
Local TimeTemperatureDewpointHumidityBarometerVisibilityWind DirectionWind SpeedGust SpeedPrecipitationEventsConditions
12:00 AM57.2 °F57.2 °F100 %30.12 inEast (80°)4.6 mphClear
12:30 AM57.2 °F55.4 °F94 %30.12 inENE (70°)3.5 mphClear
1:00 AM57.2 °F55.4 °F94 %30.12 inEast (80°)4.6 mphClear
1:30 AM55.4 °F53.6 °F94 %30.15 inEast (90°)3.5 mphClear
2:00 AM55.4 °F53.6 °F94 %30.15 inENE (70°)3.5 mphClear
2:30 AM55.4 °F53.6 °F94 %30.15 inEast (90°)3.5 mphClear
3:00 AM53.6 °F53.6 °F100 %30.15 inEast (80°)3.5 mphClear
3:00 AM56.0 °F55.0 °F94 %30.15 in6.0 miENE (70°)2.2 mph
3:30 AM53.6 °F51.8 °F94 %30.15 inENE (70°)3.5 mphClear
4:00 AM53.6 °F51.8 °F94 %30.15 inEast (90°)3.5 mphClear
4:30 AM51.8 °F51.8 °F100 %30.15 inEast (80°)2.3 mphClear
5:00 AM51.8 °F50.0 °F94 %30.15 inEast (80°)3.5 mphClear
5:30 AM51.8 °F50.0 °F94 %30.15 inEast (100°)4.6 mphClear
6:00 AM51.8 °F50.0 °F94 %30.15 inEast (90°)4.6 mphClear
6:00 AM55.0 °F54.0 °F94 %30.15 in6.0 miEast (90°)2.2 mph
6:30 AM51.8 °F51.8 °F100 %30.15 inVariable2.3 mphClear
7:00 AM55.4 °F55.4 °F100 %30.15 inEast (90°)3.5 mphClear
7:30 AM59.0 °F57.2 °F94 %30.18 inEast (100°)6.9 mphClear
8:00 AM59.0 °F59.0 °F100 %30.18 inEast (100°)8.1 mphClear
8:30 AM62.6 °F60.8 °F94 %30.18 inEast (100°)9.2 mphClear
9:00 AM64.4 °F60.8 °F88 %30.18 inEast (100°)8.1 mphClear
9:00 AM62.0 °F57.0 °F77 %30.18 in6.0 miEast (90°)4.5 mphClear
9:30 AM66.2 °F60.8 °F83 %30.18 inEast (90°)6.9 mphClear
10:00 AM69.8 °F60.8 °F73 %30.18 inSE (130°)5.8 mphClear
10:30 AM71.6 °F59.0 °F64 %30.18 inEast (100°)5.8 mphClear
11:00 AM73.4 °F57.2 °F57 %30.18 inEast (100°)4.6 mphClear
11:30 AM75.2 °F59.0 °F57 %30.18 inESE (110°)4.6 mphClear
12:00 PM77.0 °F53.6 °F44 %30.18 inEast (90°)5.8 mphClear
12:00 PM75.0 °F57.0 °F43 %30.16 in6.0 miSSE (150°)4.5 mphScattered Clouds
12:30 PM77.0 °F53.6 °F44 %30.15 inEast (90°)6.9 mphClear
1:00 PM77.0 °F50.0 °F39 %30.15 inEast (100°)4.6 mphClear
1:30 PM78.8 °F53.6 °F42 %30.15 inVariable5.8 mphClear
2:00 PM78.8 °F53.6 °F42 %30.15 inVariable4.6 mphClear
2:30 PM80.6 °F50.0 °F34 %30.15 inSE (130°)5.8 mphClear
3:00 PM80.6 °F48.2 °F32 %30.12 inVariable5.8 mphClear
3:00 PM81.0 °F50.0 °F23 %30.13 in6.0 miSSE (150°)6.7 mphScattered Clouds
3:30 PM80.6 °F48.2 °F32 %30.12 inESE (110°)6.9 mphClear
4:00 PM80.6 °F48.2 °F32 %30.12 inSSE (160°)5.8 mphClear
4:30 PM80.6 °F50.0 °F34 %30.12 inSouth (170°)3.5 mphClear
5:00 PM82.4 °F46.4 °F28 %30.12 inVariable3.5 mphClear
5:30 PM82.4 °F48.2 °F30 %30.12 inESE (120°)4.6 mphClear
6:00 PM80.6 °F46.4 °F30 %30.09 inVariable1.2 mphClear
6:30 PM82.4 °F50.0 °F32 %30.09 inVariable2.3 mphClear
7:00 PM82.4 °F53.6 °F37 %30.09 inSSE (160°)4.6 mphClear
7:30 PM80.6 °F50.0 °F34 %30.09 inSE (140°)4.6 mphClear
8:00 PM80.6 °F50.0 °F34 %30.09 inSouth (190°)3.5 mphClear
8:30 PM78.8 °F53.6 °F42 %30.09 inSouth (170°)3.5 mphClear
9:00 PM78.8 °F51.8 °F39 %30.09 inCalmClear
9:00 PM79.0 °F53.0 °F30 %30.07 in6.0 miSE (140°)2.2 mphClear
9:30 PM73.4 °F59.0 °F61 %30.09 inSE (140°)1.2 mphClear
10:00 PM71.6 °F55.4 °F57 %30.09 inVariable1.2 mphClear
10:30 PM66.2 °F59.0 °F78 %30.09 inVariable2.3 mphClear
11:00 PM64.4 °F60.8 °F88 %30.09 inVariable1.2 mphClear
11:30 PM62.6 °F60.8 °F94 %30.09 inEast (80°)3.5 mphClear
Hourly data recorded from LRTR, located miles away from Timisoara, Romania







STORIES FROM OUR PARTNERS